Miscellaneous Local Product
Issued by NWS North Platte, NE

Home | Current Version | Previous Version | Graphics & Text | Print | Product List | Glossary On
Versions: 1 2 3 4 5 6 7 8 9 10 11 12 13 14 15 16 17 18 19 20 21 22 23 24 25 26 27 28 29 30 31 32 33 34 35 36 37 38 39 40 41 42 43 44 45 46 47 48 49 50
064
AXUS43 KLBF 201210
MISLBF


WESTERN AND NORTH CENTRAL NEBRASKA HOURLY WEATHER ROUNDUP
NATIONAL WEATHER SERVICE NORTH PLATTE NE
700 AM CDT SUN AUG 20 2017

NOTE: "FAIR" INDICATES FEW OR NO CLOUDS BELOW 12,000 FEET WITH NO
SIGNIFICANT WEATHER AND/OR OBSTRUCTIONS TO VISIBILITY.

NOTE: STATIONS NOT REPORTING VARIABLES SUCH AS SKY/WEATHER OR
PRESSURE ARE PROVIDED BY RAWS AND APRS NETWORKS AND ARE NOT UNDER
NATIONAL WEATHER SERVICE QUALITY CONTROL.

...OBSERVATIONS IN AND NEAR THE EASTERN PANHANDLE OF NEBRASKA...

CITY           SKY/WX    TMP DP  RH WIND       PRES   REMARKS
PINE RIDGE     CLEAR     57  51  80 NE6       30.01R
GORDON         FAIR      62  53  71 E10       30.01R
CHADRON        CLEAR     50  46  86 CALM      30.02R
ALLIANCE       CLEAR     53  47  79 NE9       29.99R
SIDNEY         CLEAR     54  46  74 NW12      29.99R
$$

...OBSERVATIONS IN NORTHERN NEBRASKA AND FAR SOUTHERN SOUTH DAKOTA...

CITY           SKY/WX    TMP DP  RH WIND       PRES   REMARKS
WINNER         FAIR      65  63  93 E8        29.93R
VALENTINE      CLEAR     67  62  84 NE8       29.97R
THEDFORD       CLEAR     61  59  91 CALM      29.96R
AINSWORTH      CLEAR     62  61  97 NE5       29.95S
O`NEILL        CLEAR     67  57  69 SW6       29.95R
ORD            CLEAR     62  57  83 CALM      29.90R
BROKEN BOW     CLEAR     62  59  90 E7        29.90R
VALENTINE NWR    N/A     65  61  88 NE9         N/A
HALSEY           N/A     61  61  99 N7G20       N/A
BUTTE            N/A     63  60  90 SE6         N/A
CHAMBERS         N/A     63  57  82 CALM        N/A
EWING            N/A     61  58  90 N6          N/A
$$

...OBSERVATIONS IN SOUTHWEST NEBRASKA AND FAR NORTHEAST COLORADO...

CITY           SKY/WX    TMP DP  RH WIND       PRES   REMARKS
IMPERIAL       CLEAR     62  55  77 VRB3      29.93R
OGALLALA       CLEAR     57  56  95 CALM      29.93R
NORTH PLATTE   CLEAR     61  60  97 CALM      29.89R FOG
MCCOOK         CLEAR     64  56  75 W7        29.86F
LEXINGTON      CLEAR     64  62  93 SE7       29.89R
STAPLETON        N/A     59  58  96 CALM        N/A
GOTHENBURG       N/A     64  59  85 CALM        N/A
CALLAWAY         N/A     61  59  94 S5          N/A
$$

...OBSERVATIONS IN CENTRAL LINCOLN COUNTY AREA...

CITY           SKY/WX    TMP DP  RH WIND       PRES   REMARKS
N.P. AIRPORT   CLEAR     61  60  97 CALM      29.89R FOG
N.P. DOWNTOWN    N/A     63  62  95 CALM        N/A
N.P. SOUTHEAST   N/A     61  59  94 CALM        N/A
N.P. HILLCREST   N/A     63  61  94 CALM        N/A
$$

...SOME OBSERVATIONS FROM AROUND THE REGION...

CITY           SKY/WX    TMP DP  RH WIND       PRES   REMARKS
DENVER         CLOUDY    64  40  41 SW13      30.07R
LIMON          CLEAR     50  48  93 N7        30.07S
ASPEN          CLOUDY    46  34  62 CALM      30.31R
LARAMIE        CLOUDY    48  31  51 S7        30.23R
CASPER         CLEAR     48  36  63 W8        30.11S
CHEYENNE       CLEAR     62  28  27 W10       30.13R
SCOTTSBLUFF    CLEAR     55  44  66 N8        30.01R
GRAND ISLAND   CLEAR     65  61  87 SE14G20   29.90R
OMAHA          CLOUDY    70  65  84 S3        29.91R
SIOUX FALLS    PTCLDY    64  62  93 W5        29.92R
PIERRE         CLOUDY    64  55  72 N18       29.96R
RAPID CITY     CLEAR     56  47  71 NW7       30.05R
BISMARCK       CLOUDY    58  47  66 N3        30.03S
KANSAS CITY    TSTM      69  66  90 SE12      29.99F
HILL CITY      CLEAR     71  65  81 S6        29.88R
WICHITA        PTCLDY    72  69  90 S9        29.93S
DODGE CITY     CLEAR     69  64  84 SW7       29.95R
OKLAHOMA CITY  PTCLDY    70  69  97 S5        29.98R
DALLAS         MOCLDY    82  69  64 SW8       29.96R
AMARILLO       PTCLDY    68  59  73 SW14      30.05S
$$




USA.gov is the U.S. government's official web portal to all federal, state and local government web resources and services.